Home   Weather   Baton Rouge   Past weeks

Flag for USA Past Weather in Baton Rouge, Louisiana, USA — Yesterday and Last 2 Weeks

86 °F

Scattered clouds.

Feels Like: 86 °F
Forecast: 65 / 85 °F
Wind: 5 mph from East

Location: Baton Rouge Metropolitan - Ryan Field

Current Time: Oct 27, 2016 at 3:55:18 PM

Latest Report: Oct 27, 2016 at 2:53 PM

Visibility: 10 mi

Pressure: 30.16 "Hg

Humidity: 42%

Dew Point: 60 °F

Location of Baton RougeLocation

Past Weather in Baton Rouge — Graph


Baton Rouge Temperature Yesterday

Maximum temperature yesterday: 83 °F (at 1:53 PM)
Minimum temperature yesterday: 54 °F (at 2:53 AM)
Average temperature yesterday: 68 °F

High & Low Weather Summary for the Past Weeks

High90 °F (Oct 16, 4:53 PM)100% (Oct 13, 6:53 AM)30.32 "Hg (Oct 13, 6:53 AM)
Low45 °F (Oct 23, 6:53 AM)22% (Oct 22, 2:53 PM)29.87 "Hg (Oct 17, 4:53 PM)
Average71 °F74%30.10 "Hg
* Reported Oct 12 2:53 PM — Oct 27 2:53 PM, Baton Rouge, Weather by CustomWeather, © 2016

Note: Actual official high and low records may vary slightly from our data, if they occured in-between our weather recording intervals... More about our weather records


Baton Rouge Weather History for the Previous 24 Hours

Scroll right to see more
Time TempWeatherWind HumidityBarometerVisibility
2:53 PM
Thu, Oct 27
86 °FScattered clouds.5 mph42%30.16 "Hg10 mi
1:53 PM85 °FBroken clouds.9 mph48%30.19 "Hg10 mi
12:53 PM81 °FScattered clouds.5 mph56%30.21 "Hg10 mi
11:53 AM80 °FSunny.7 mph60%30.23 "Hg10 mi
10:53 AM80 °FSunny.8 mph62%30.24 "Hg10 mi
9:53 AM75 °FSunny.7 mph76%30.24 "Hg10 mi
8:53 AM69 °FSunny.5 mph90%30.21 "Hg10 mi
7:53 AM66 °FSunny.6 mph96%30.19 "Hg9 mi
6:53 AM66 °FPassing clouds.5 mph96%30.19 "Hg10 mi
5:53 AM66 °FClear.3 mph96%30.18 "Hg10 mi
4:53 AM66 °FPassing clouds.6 mph93%30.16 "Hg10 mi
3:53 AM66 °FPassing clouds.5 mph93%30.17 "Hg10 mi
2:53 AM66 °FClear.5 mph93%30.17 "Hg10 mi
1:53 AM64 °FPassing clouds.3 mph94%30.17 "Hg10 mi
12:53 AM65 °FPassing clouds.No wind94%30.18 "Hg10 mi
11:53 PM
Wed, Oct 26
66 °FClear.No wind90%30.19 "Hg10 mi
10:53 PM68 °FClear.No wind87%30.19 "Hg10 mi
9:53 PM69 °FClear.No wind81%30.19 "Hg10 mi
8:53 PM71 °FClear.6 mph76%30.16 "Hg10 mi
7:53 PM72 °FClear.6 mph71%30.15 "Hg10 mi
6:53 PM74 °FClear.7 mph67%30.14 "Hg10 mi
5:53 PM78 °FSunny.7 mph58%30.12 "Hg10 mi
4:53 PM81 °FScattered clouds.10 mph51%30.12 "Hg10 mi
3:53 PM82 °FPassing clouds.9 mph49%30.13 "Hg10 mi
Weather by CustomWeather, © 2016

See weather overviewHow to use our weather pages